THOR ABLESTAR DEB, 232

Orbit data source: Space-Track

THOR ABLESTAR DEB, 232 is space debris in LEO originally from a launch on Thu, 29 Jun 1961 UTC launched from the Air Force Eastern Test Range (AFETR). Debris objects in space refer to the collection of defunct objects orbiting the Earth. Examples of debris include non-operational satellites, rocket bodies, and fragments generated from explosions, collisions, or faulty payload assembly.

Loading next visibility...
Identifier
232, 1961-015BQ
Orbit
LEO
Last TLE update
13 hours ago
Origin
Manufacturer
Unknown
Mission
Spacecraft
Bus & Motor
Unknown
Mass
Unknown
Launch date (UTC)
1961-06-29 (64 years ago)
Launch vehicle
Unknown
Launch site
Air Force Eastern Test Range (AFETR)
Object type
Payload
Rocket body
Debris
Shape & HBR
Unknown
Radar Cross Section
Medium (>0.1 m² and <1 m²)

Expand to show TLE details & history

TLE from 13 hours ago
0 THOR ABLESTAR DEB
1 00232U 61015BQ  25189.73661392  .00000126  00000-0  13557-3 0  9995
2 00232  66.8220 345.2830 0059063 343.1579  16.7543 14.00558162258893
Epoch: 2025-07-08T17:40Z
TLE epoch observation values (Epoch: 2025-07-08T17:40:43.442Z)
Latitude
0.00004°
Longitude
153.17469°
Altitude
852.851 km
Speed
7.448 km/s
True Right ascension
23h 01m 07s
True Declination
0° 00' 00"
Sunlit
Object was in full shadow at epoch
Visualization orbit readout
Latitude
-61.71574°
Longitude
99.46878°
Altitude
890.443 km
Speed
7.419 km/s
Apparent Right ascension
06h 38m 40s
Apparent Declination
-81° 59' 52"
Sunlit
Object is in full shadow
Visualization observer readout
Local Sidereal Time
19:12:07
Azimuth
178.272° S
Elevation
-47.821°
Doppler factor
1
Orbital elements
Apogee altitude
933.176 km
Perigee altitude
847.317 km
Semi-major axis
7,268.383 km
Eccentricity
0.00591
Inclination
66.822°
RAAN
345.283°
Arg. of periapsis
343.1579°
True anomaly
Unknown
Mean anomaly
16.7543°
Eccentric anomaly
Unknown
Mean motion
3.50257 °/min
Orbital period
102.78 mins
BSTAR
0.00013557
Loading maneuver chart data...
Loading SW <> Apogee altitude chart data...

THOR ABLESTAR DEB Visibility forecast

Observer location: undefined°, undefined°

Span
Click to sort rows by Start time (UTC) header in descending order
Start Az.
Max El. time (UTC)
Max El. Az.
Max El.
End time (UTC)
End Az.
9 mins2025-07-09 10:55:41.264Z160.383° S2025-07-09 10:59:41.264Z114.507° SE23.531°2025-07-09 11:04:41.264Z53.74° ENE
9 mins2025-07-09 12:41:41.264Z239.288° WSW2025-07-09 12:45:41.264Z311.835° NW36.013°2025-07-09 12:50:41.264Z17.122° NNE
8 mins2025-07-09 19:55:41.264Z359.26° N2025-07-09 19:59:41.264Z51.675° ENE25.236°2025-07-09 20:03:41.264Z100.533° ESE
10 mins2025-07-09 21:40:41.264Z318.521° NNW2025-07-09 21:45:41.264Z239.587° WSW38.503°2025-07-09 21:50:41.264Z174.07° S
|